QPF
0.03 0.03 0.02 0.01 0.00 0.00 0.00 0.00 0.00 0.01 0.01 0.01 0.03 0.06 0.05 0.05 0.04 0.05 0.05 0.08 0.10 0.12 0.12 0.14 0.21 0.23 0.21 0.16 0.11 0.06 0.03 0.02 0.01 0.01 0.01 0.00 0.00 0.00 0.00 0.00 0.00 0.00 0.00
0.02 0.02 0.02 0.02 0.01 0.00 0.00 0.01 0.01 0.02 0.02 0.05 0.08 0.10 0.08 0.06 0.05 0.06 0.06 0.07 0.08 0.11 0.13 0.17 0.23 0.29 0.34 0.32 0.23 0.16 0.10 0.06 0.04 0.03 0.02 0.01 0.00 0.00 0.00 0.00 0.00 0.00 0.00
0.01 0.02 0.02 0.02 0.02 0.02 0.02 0.03 0.04 0.06 0.08 0.12 0.16 0.12 0.09 0.08 0.06 0.07 0.08 0.09 0.08 0.08 0.09 0.14 0.19 0.26 0.32 0.34 0.33 0.29 0.24 0.15 0.10 0.08 0.06 0.04 0.01 0.01 0.00 0.00 0.00 0.00 0.00
0.01 0.01 0.01 0.01 0.02 0.02 0.03 0.05 0.07 0.12 0.17 0.21 0.18 0.13 0.09 0.08 0.07 0.08 0.09 0.10 0.08 0.07 0.09 0.12 0.15 0.19 0.23 0.28 0.35 0.39 0.40 0.32 0.25 0.19 0.12 0.08 0.03 0.01 0.00 0.00 0.00 0.00 0.00
0.00 0.01 0.01 0.02 0.03 0.03 0.04 0.08 0.13 0.18 0.25 0.25 0.22 0.16 0.09 0.06 0.06 0.06 0.06 0.08 0.09 0.09 0.08 0.09 0.11 0.14 0.16 0.20 0.29 0.36 0.43 0.43 0.37 0.31 0.25 0.17 0.09 0.03 0.01 0.00 0.00 0.00 0.00
0.02 0.02 0.04 0.05 0.05 0.07 0.10 0.13 0.19 0.25 0.28 0.26 0.19 0.13 0.07 0.04 0.03 0.03 0.04 0.05 0.06 0.07 0.06 0.07 0.08 0.09 0.09 0.14 0.21 0.28 0.35 0.43 0.43 0.39 0.31 0.22 0.15 0.08 0.05 0.02 0.01 0.00 0.00
0.08 0.11 0.14 0.16 0.20 0.23 0.23 0.23 0.24 0.23 0.20 0.15 0.10 0.06 0.03 0.02 0.02 0.02 0.02 0.02 0.02 0.03 0.04 0.04 0.04 0.04 0.05 0.07 0.10 0.13 0.17 0.28 0.32 0.31 0.28 0.21 0.15 0.11 0.09 0.07 0.05 0.03 0.01
0.14 0.22 0.30 0.37 0.40 0.38 0.33 0.31 0.27 0.21 0.15 0.09 0.06 0.04 0.03 0.02 0.01 0.01 0.00 0.00 0.00 0.00 0.01 0.01 0.02 0.03 0.03 0.03 0.04 0.05 0.08 0.13 0.17 0.21 0.23 0.20 0.15 0.12 0.09 0.08 0.08 0.06 0.03
0.18 0.27 0.38 0.46 0.44 0.38 0.31 0.27 0.23 0.17 0.13 0.08 0.05 0.03 0.02 0.01 0.01 0.00 0.00 0.00 0.00 0.00 0.00 0.00 0.00 0.01 0.01 0.02 0.02 0.03 0.04 0.06 0.08 0.13 0.16 0.14 0.13 0.12 0.09 0.08 0.09 0.07 0.05
0.19 0.30 0.39 0.47 0.53 0.49 0.42 0.28 0.18 0.15 0.11 0.07 0.05 0.03 0.02 0.01 0.01 0.01 0.00 0.00 0.00 0.00 0.00 0.00 0.00 0.00 0.00 0.00 0.01 0.01 0.03 0.04 0.06 0.10 0.12 0.13 0.15 0.13 0.11 0.09 0.10 0.08 0.06
0.17 0.28 0.42 0.47 0.45 0.38 0.34 0.27 0.16 0.11 0.07 0.06 0.05 0.03 0.02 0.02 0.01 0.00 0.00 0.00 0.00 0.00 0.00 0.00 0.00 0.00 0.00 0.00 0.00 0.01 0.02 0.02 0.03 0.04 0.07 0.11 0.16 0.15 0.15 0.14 0.14 0.13 0.10
0.14 0.19 0.25 0.30 0.29 0.24 0.20 0.18 0.13 0.09 0.08 0.08 0.07 0.06 0.04 0.02 0.02 0.01 0.00 0.00 0.00 0.00 0.00 0.00 0.00 0.00 0.00 0.00 0.00 0.01 0.01 0.01 0.01 0.02 0.03 0.06 0.12 0.14 0.16 0.18 0.18 0.18 0.17
0.09 0.11 0.12 0.12 0.14 0.14 0.12 0.12 0.12 0.14 0.15 0.14 0.15 0.14 0.09 0.05 0.03 0.02 0.01 0.00 0.00 0.00 0.00 0.00 0.00 0.00 0.00 0.00 0.00 0.00 0.00 0.00 0.00 0.01 0.01 0.03 0.05 0.07 0.09 0.14 0.18 0.22 0.25
0.06 0.07 0.07 0.07 0.07 0.07 0.08 0.10 0.14 0.18 0.21 0.22 0.20 0.17 0.12 0.06 0.04 0.03 0.02 0.02 0.01 0.01 0.01 0.00 0.00 0.00 0.00 0.00 0.00 0.01 0.00 0.00 0.00 0.00 0.00 0.01 0.02 0.03 0.05 0.10 0.17 0.23 0.28
0.06 0.07 0.06 0.06 0.06 0.06 0.06 0.08 0.11 0.14 0.18 0.21 0.20 0.16 0.11 0.08 0.06 0.05 0.04 0.04 0.04 0.03 0.02 0.01 0.01 0.01 0.01 0.02 0.01 0.01 0.01 0.00 0.00 0.00 0.00 0.01 0.01 0.02 0.03 0.06 0.10 0.15 0.20
0.06 0.07 0.07 0.07 0.07 0.06 0.06 0.06 0.07 0.10 0.14 0.17 0.17 0.14 0.09 0.07 0.06 0.06 0.06 0.05 0.04 0.04 0.03 0.02 0.02 0.02 0.02 0.03 0.03 0.02 0.01 0.01 0.00 0.00 0.00 0.00 0.00 0.01 0.02 0.03 0.05 0.08 0.13
0.05 0.06 0.05 0.05 0.05 0.04 0.04 0.04 0.05 0.08 0.10 0.12 0.12 0.09 0.06 0.05 0.06 0.05 0.05 0.04 0.03 0.03 0.03 0.02 0.02 0.03 0.04 0.05 0.03 0.04 0.02 0.01 0.01 0.01 0.00 0.00 0.00 0.00 0.00 0.01 0.02 0.03 0.04
0.03 0.03 0.04 0.03 0.03 0.02 0.03 0.03 0.04 0.05 0.07 0.07 0.06 0.06 0.05 0.04 0.03 0.03 0.03 0.02 0.02 0.02 0.02 0.03 0.02 0.02 0.05 0.06 0.05 0.05 0.03 0.04 0.03 0.02 0.01 0.01 0.01 0.00 0.00 0.00 0.00 0.01 0.03
0.01 0.01 0.01 0.01 0.01 0.01 0.01 0.01 0.01 0.02 0.02 0.02 0.02 0.02 0.02 0.01 0.01 0.01 0.01 0.01 0.01 0.01 0.01 0.01 0.02 0.02 0.04 0.06 0.06 0.06 0.04 0.07 0.05 0.02 0.01 0.01 0.01 0.01 0.01 0.00 0.00 0.00 0.00
0.00 0.00 0.00 0.00 0.00 0.00 0.01 0.01 0.00 0.01 0.01 0.01 0.00 0.00 0.00 0.00 0.00 0.00 0.00 0.00 0.00 0.00 0.01 0.01 0.01 0.02 0.03 0.06 0.06 0.07 0.06 0.07 0.05 0.03 0.04 0.03 0.02 0.02 0.02 0.01 0.01 0.00 0.00
0.00 0.00 0.00 0.00 0.00 0.00 0.00 0.00 0.00 0.00 0.00 0.00 0.00 0.00 0.00 0.00 0.00 0.00 0.00 0.00 0.00 0.00 0.00 0.01 0.01 0.02 0.03 0.05 0.07 0.10 0.08 0.08 0.06 0.04 0.04 0.04 0.04 0.04 0.03 0.01 0.00 0.01 0.01
0.00 0.00 0.00 0.00 0.00 0.00 0.00 0.00 0.00 0.00 0.00 0.00 0.00 0.00 0.00 0.00 0.00 0.00 0.00 0.00 0.00 0.00 0.00 0.00 0.01 0.01 0.03 0.04 0.05 0.07 0.10 0.11 0.08 0.06 0.06 0.04 0.04 0.03 0.02 0.02 0.01 0.01 0.01
0.00 0.00 0.00 0.00 0.00 0.00 0.00 0.00 0.00 0.00 0.00 0.00 0.00 0.00 0.00 0.00 0.00 0.00 0.00 0.00 0.00 0.00 0.00 0.00 0.00 0.00 0.01 0.02 0.04 0.04 0.06 0.08 0.07 0.06 0.05 0.03 0.03 0.03 0.02 0.01 0.01 0.01 0.01
0.00 0.00 0.00 0.00 0.00 0.00 0.00 0.00 0.00 0.00 0.00 0.00 0.00 0.00 0.00 0.00 0.00 0.00 0.00 0.00 0.00 0.00 0.00 0.00 0.00 0.00 0.01 0.01 0.01 0.02 0.03 0.05 0.06 0.05 0.05 0.03 0.02 0.01 0.01 0.01 0.01 0.01 0.01
0.00 0.00 0.00 0.00 0.00 0.00 0.00 0.00 0.00 0.00 0.00 0.00 0.00 0.00 0.00 0.00 0.00 0.00 0.00 0.00 0.00 0.00 0.00 0.00 0.00 0.00 0.00 0.01 0.01 0.02 0.01 0.02 0.03 0.03 0.04 0.03 0.02 0.02 0.02 0.02 0.03 0.03 0.04
0.00 0.00 0.00 0.00 0.00 0.00 0.00 0.00 0.00 0.00 0.00 0.00 0.00 0.00 0.00 0.00 0.00 0.00 0.00 0.00 0.00 0.00 0.00 0.00 0.00 0.00 0.00 0.00 0.01 0.02 0.03 0.02 0.02 0.02 0.02 0.02 0.02 0.02 0.02 0.03 0.04 0.03 0.03
MSLP
1009.42 1008.74 1008.14 1007.66 1007.35 1007.24 1007.35 1007.68 1008.18 1008.81 1009.51 1010.23 1010.90 1011.50 1011.99 1012.39 1012.67 1012.89 1013.05 1013.20 1013.35 1013.52 1013.75 1014.03 1014.36 1014.75 1015.19 1015.65 1016.12 1016.58 1017.01 1017.41 1017.76 1018.06 1018.31 1018.51 1018.65 1018.75 1018.79 1018.79 1018.73 1018.64 1018.52
1009.35 1008.53 1007.78 1007.18 1006.76 1006.58 1006.65 1006.96 1007.50 1008.19 1008.98 1009.80 1010.57 1011.25 1011.80 1012.22 1012.50 1012.68 1012.80 1012.89 1013.00 1013.15 1013.36 1013.65 1014.02 1014.44 1014.91 1015.40 1015.90 1016.38 1016.83 1017.24 1017.62 1017.96 1018.26 1018.52 1018.73 1018.89 1018.99 1019.03 1019.00 1018.91 1018.78
1009.34 1008.42 1007.58 1006.89 1006.40 1006.17 1006.21 1006.51 1007.07 1007.80 1008.64 1009.52 1010.35 1011.08 1011.67 1012.09 1012.36 1012.51 1012.59 1012.64 1012.71 1012.83 1013.03 1013.32 1013.68 1014.11 1014.58 1015.07 1015.56 1016.04 1016.49 1016.91 1017.32 1017.70 1018.06 1018.39 1018.68 1018.92 1019.09 1019.19 1019.20 1019.13 1018.99
1009.46 1008.48 1007.60 1006.87 1006.36 1006.10 1006.12 1006.42 1006.97 1007.72 1008.57 1009.46 1010.30 1011.04 1011.62 1012.03 1012.28 1012.40 1012.45 1012.47 1012.50 1012.60 1012.77 1013.04 1013.38 1013.79 1014.23 1014.69 1015.15 1015.59 1016.03 1016.45 1016.87 1017.29 1017.70 1018.11 1018.48 1018.80 1019.05 1019.21 1019.27 1019.23 1019.11
1009.71 1008.73 1007.86 1007.15 1006.65 1006.40 1006.42 1006.71 1007.24 1007.95 1008.77 1009.62 1010.42 1011.11 1011.66 1012.04 1012.26 1012.36 1012.38 1012.38 1012.39 1012.46 1012.61 1012.84 1013.14 1013.49 1013.88 1014.28 1014.69 1015.09 1015.49 1015.90 1016.32 1016.76 1017.22 1017.67 1018.11 1018.51 1018.83 1019.05 1019.16 1019.17 1019.08
1010.08 1009.15 1008.34 1007.69 1007.24 1007.02 1007.04 1007.31 1007.79 1008.43 1009.18 1009.94 1010.66 1011.28 1011.76 1012.09 1012.28 1012.36 1012.37 1012.35 1012.36 1012.41 1012.53 1012.71 1012.96 1013.26 1013.57 1013.91 1014.24 1014.58 1014.94 1015.31 1015.72 1016.16 1016.63 1017.12 1017.60 1018.04 1018.42 1018.69 1018.85 1018.91 1018.87
1010.52 1009.69 1008.97 1008.40 1008.02 1007.84 1007.87 1008.11 1008.52 1009.07 1009.70 1010.34 1010.95 1011.46 1011.87 1012.14 1012.30 1012.36 1012.37 1012.36 1012.37 1012.41 1012.51 1012.66 1012.86 1013.09 1013.34 1013.60 1013.86 1014.14 1014.44 1014.77 1015.14 1015.56 1016.02 1016.50 1016.99 1017.44 1017.83 1018.14 1018.34 1018.44 1018.45
1010.98 1010.25 1009.64 1009.18 1008.87 1008.74 1008.77 1008.96 1009.30 1009.73 1010.23 1010.73 1011.20 1011.60 1011.91 1012.13 1012.26 1012.33 1012.35 1012.36 1012.39 1012.44 1012.53 1012.66 1012.82 1013.00 1013.19 1013.38 1013.59 1013.81 1014.05 1014.33 1014.65 1015.03 1015.44 1015.88 1016.33 1016.76 1017.14 1017.45 1017.67 1017.81 1017.87
1011.40 1010.78 1010.28 1009.91 1009.67 1009.57 1009.60 1009.74 1009.99 1010.30 1010.65 1011.01 1011.35 1011.64 1011.87 1012.04 1012.15 1012.23 1012.28 1012.33 1012.39 1012.46 1012.56 1012.68 1012.82 1012.96 1013.11 1013.27 1013.43 1013.60 1013.80 1014.03 1014.29 1014.60 1014.95 1015.32 1015.70 1016.06 1016.40 1016.69 1016.91 1017.08 1017.18
1011.75 1011.23 1010.82 1010.52 1010.34 1010.26 1010.27 1010.36 1010.51 1010.71 1010.93 1011.16 1011.38 1011.57 1011.73 1011.86 1011.97 1012.07 1012.15 1012.24 1012.34 1012.45 1012.57 1012.69 1012.83 1012.96 1013.09 1013.22 1013.36 1013.51 1013.68 1013.87 1014.08 1014.32 1014.58 1014.86 1015.15 1015.44 1015.71 1015.95 1016.16 1016.33 1016.48
1012.07 1011.61 1011.26 1011.02 1010.86 1010.78 1010.76 1010.80 1010.87 1010.97 1011.07 1011.19 1011.31 1011.42 1011.53 1011.64 1011.75 1011.87 1011.99 1012.12 1012.25 1012.39 1012.53 1012.67 1012.81 1012.95 1013.08 1013.22 1013.36 1013.51 1013.66 1013.83 1014.00 1014.18 1014.36 1014.55 1014.74 1014.93 1015.12 1015.31 1015.49 1015.66 1015.83
1012.43 1012.00 1011.67 1011.44 1011.28 1011.19 1011.14 1011.11 1011.11 1011.12 1011.14 1011.17 1011.21 1011.27 1011.34 1011.43 1011.55 1011.68 1011.83 1011.98 1012.14 1012.30 1012.46 1012.61 1012.75 1012.90 1013.04 1013.20 1013.35 1013.52 1013.68 1013.84 1013.99 1014.13 1014.25 1014.36 1014.47 1014.57 1014.68 1014.81 1014.95 1015.11 1015.30
1012.87 1012.44 1012.12 1011.87 1011.69 1011.57 1011.47 1011.40 1011.33 1011.28 1011.23 1011.20 1011.18 1011.19 1011.24 1011.31 1011.43 1011.56 1011.71 1011.87 1012.04 1012.20 1012.35 1012.49 1012.63 1012.78 1012.94 1013.11 1013.29 1013.48 1013.67 1013.84 1013.99 1014.11 1014.20 1014.25 1014.29 1014.33 1014.37 1014.45 1014.55 1014.70 1014.89
1013.45 1013.01 1012.65 1012.38 1012.16 1011.99 1011.86 1011.73 1011.62 1011.52 1011.42 1011.35 1011.29 1011.27 1011.29 1011.34 1011.43 1011.55 1011.69 1011.83 1011.97 1012.10 1012.22 1012.34 1012.46 1012.60 1012.75 1012.94 1013.14 1013.36 1013.58 1013.78 1013.94 1014.07 1014.14 1014.17 1014.18 1014.17 1014.17 1014.20 1014.28 1014.40 1014.59
1014.16 1013.70 1013.31 1013.00 1012.74 1012.53 1012.35 1012.19 1012.04 1011.91 1011.78 1011.67 1011.59 1011.54 1011.52 1011.55 1011.60 1011.68 1011.78 1011.87 1011.96 1012.03 1012.10 1012.17 1012.25 1012.36 1012.50 1012.67 1012.89 1013.13 1013.37 1013.60 1013.80 1013.95 1014.03 1014.07 1014.06 1014.03 1014.01 1014.01 1014.07 1014.18 1014.34
1014.97 1014.48 1014.06 1013.71 1013.42 1013.17 1012.96 1012.78 1012.61 1012.45 1012.31 1012.17 1012.07 1011.99 1011.93 1011.92 1011.92 1011.95 1011.98 1012.01 1012.03 1012.03 1012.03 1012.03 1012.05 1012.10 1012.20 1012.35 1012.56 1012.80 1013.07 1013.33 1013.55 1013.73 1013.85 1013.90 1013.91 1013.88 1013.85 1013.84 1013.88 1013.97 1014.11
1015.78 1015.27 1014.83 1014.46 1014.14 1013.88 1013.66 1013.46 1013.29 1013.12 1012.96 1012.82 1012.69 1012.58 1012.49 1012.42 1012.38 1012.34 1012.30 1012.26 1012.20 1012.12 1012.04 1011.96 1011.90 1011.89 1011.93 1012.04 1012.22 1012.44 1012.71 1012.98 1013.23 1013.44 1013.59 1013.68 1013.71 1013.70 1013.68 1013.66 1013.68 1013.75 1013.87
1016.49 1015.98 1015.53 1015.15 1014.84 1014.58 1014.36 1014.18 1014.01 1013.85 1013.69 1013.54 1013.39 1013.26 1013.13 1013.02 1012.92 1012.82 1012.72 1012.61 1012.47 1012.32 1012.16 1012.00 1011.87 1011.78 1011.76 1011.81 1011.93 1012.13 1012.37 1012.64 1012.90 1013.13 1013.31 1013.43 1013.49 1013.50 1013.49 1013.47 1013.47 1013.51 1013.61
1017.02 1016.53 1016.09 1015.73 1015.43 1015.19 1015.00 1014.84 1014.70 1014.56 1014.41 1014.26 1014.11 1013.95 1013.80 1013.66 1013.51 1013.37 1013.22 1013.05 1012.85 1012.64 1012.42 1012.19 1011.99 1011.83 1011.74 1011.72 1011.78 1011.92 1012.13 1012.37 1012.63 1012.86 1013.06 1013.20 1013.28 1013.31 1013.30 1013.28 1013.27 1013.29 1013.35
1017.35 1016.87 1016.47 1016.14 1015.87 1015.67 1015.52 1015.40 1015.29 1015.18 1015.06 1014.93 1014.78 1014.62 1014.46 1014.29 1014.12 1013.95 1013.76 1013.56 1013.34 1013.09 1012.82 1012.55 1012.29 1012.07 1011.91 1011.82 1011.81 1011.89 1012.04 1012.24 1012.47 1012.69 1012.88 1013.03 1013.13 1013.17 1013.17 1013.14 1013.12 1013.11 1013.14
1017.49 1017.05 1016.67 1016.38 1016.16 1016.00 1015.90 1015.83 1015.76 1015.69 1015.60 1015.50 1015.37 1015.22 1015.06 1014.89 1014.72 1014.54 1014.34 1014.13 1013.90 1013.63 1013.35 1013.05 1012.76 1012.49 1012.27 1012.11 1012.04 1012.04 1012.12 1012.27 1012.45 1012.64 1012.82 1012.97 1013.07 1013.11 1013.11 1013.08 1013.05 1013.02 1013.02
1017.50 1017.09 1016.75 1016.49 1016.31 1016.20 1016.15 1016.12 1016.10 1016.07 1016.03 1015.95 1015.86 1015.73 1015.59 1015.44 1015.28 1015.11 1014.93 1014.73 1014.50 1014.24 1013.96 1013.66 1013.35 1013.05 1012.78 1012.57 1012.43 1012.36 1012.37 1012.45 1012.58 1012.73 1012.88 1013.01 1013.10 1013.15 1013.16 1013.13 1013.08 1013.03 1013.01
1017.48 1017.09 1016.77 1016.54 1016.39 1016.31 1016.28 1016.30 1016.32 1016.34 1016.33 1016.30 1016.24 1016.15 1016.04 1015.92 1015.79 1015.65 1015.49 1015.31 1015.11 1014.87 1014.61 1014.31 1014.00 1013.68 1013.39 1013.13 1012.93 1012.80 1012.74 1012.76 1012.82 1012.93 1013.04 1013.15 1013.24 1013.29 1013.30 1013.27 1013.22 1013.17 1013.13
1017.47 1017.09 1016.79 1016.56 1016.42 1016.36 1016.35 1016.39 1016.44 1016.49 1016.53 1016.54 1016.52 1016.47 1016.41 1016.32 1016.23 1016.12 1015.99 1015.85 1015.67 1015.47 1015.22 1014.95 1014.64 1014.32 1014.01 1013.73 1013.49 1013.30 1013.19 1013.14 1013.15 1013.21 1013.29 1013.38 1013.46 1013.50 1013.52 1013.51 1013.47 1013.42 1013.37
1017.53 1017.15 1016.83 1016.60 1016.45 1016.37 1016.36 1016.40 1016.47 1016.54 1016.61 1016.66 1016.69 1016.69 1016.67 1016.63 1016.57 1016.50 1016.41 1016.29 1016.15 1015.98 1015.76 1015.51 1015.22 1014.92 1014.61 1014.31 1014.04 1013.82 1013.67 1013.57 1013.54 1013.55 1013.60 1013.67 1013.74 1013.79 1013.82 1013.82 1013.80 1013.76 1013.71
1017.64 1017.24 1016.90 1016.64 1016.46 1016.35 1016.32 1016.35 1016.41 1016.50 1016.60 1016.68 1016.75 1016.80 1016.83 1016.83 1016.81 1016.78 1016.72 1016.63 1016.52 1016.38 1016.19 1015.97 1015.71 1015.43 1015.13 1014.84 1014.57 1014.34 1014.16 1014.03 1013.96 1013.95 1013.97 1014.02 1014.08 1014.14 1014.18 1014.20 1014.19 1014.17 1014.13
Thickness
5779 5786 5792 5794 5794 5792 5789 5785 5780 5776 5771 5764 5758 5753 5751 5751 5749 5748 5746 5744 5742 5740 5737 5735 5731 5728 5723 5721 5718 5714 5710 5705 5703 5698 5694 5694 5695 5696 5698 5698 5698 5698 5698
5769 5778 5786 5790 5792 5792 5790 5786 5780 5776 5771 5766 5760 5754 5750 5747 5746 5744 5743 5742 5740 5738 5735 5732 5729 5726 5721 5717 5714 5710 5705 5702 5699 5694 5688 5684 5685 5690 5693 5694 5694 5694 5693
5756 5769 5778 5785 5789 5790 5789 5786 5780 5773 5767 5761 5754 5749 5744 5742 5739 5738 5738 5738 5737 5735 5733 5730 5727 5724 5720 5716 5712 5708 5703 5698 5694 5693 5688 5680 5677 5682 5686 5689 5690 5690 5690
5749 5761 5771 5779 5784 5787 5787 5782 5776 5769 5761 5754 5748 5742 5738 5735 5735 5735 5734 5734 5733 5731 5729 5727 5724 5721 5718 5714 5711 5707 5703 5697 5691 5688 5686 5684 5683 5678 5677 5682 5685 5686 5686
5737 5750 5761 5770 5777 5779 5778 5773 5768 5761 5754 5747 5740 5735 5733 5732 5732 5731 5730 5728 5728 5727 5725 5723 5720 5717 5715 5712 5708 5705 5701 5697 5692 5687 5683 5680 5678 5678 5675 5674 5679 5681 5684
5724 5735 5747 5756 5761 5764 5764 5761 5755 5748 5745 5739 5731 5727 5726 5725 5725 5725 5724 5723 5722 5721 5720 5718 5716 5713 5711 5708 5705 5702 5698 5695 5691 5687 5683 5680 5677 5675 5674 5672 5673 5676 5680
5709 5718 5727 5735 5740 5743 5744 5745 5743 5734 5731 5727 5722 5721 5721 5720 5720 5719 5718 5717 5716 5715 5715 5713 5711 5709 5706 5704 5701 5698 5694 5691 5688 5685 5683 5681 5680 5679 5676 5672 5670 5671 5675
5695 5704 5710 5717 5722 5725 5726 5726 5725 5719 5717 5716 5714 5714 5715 5715 5714 5714 5713 5712 5711 5710 5710 5708 5706 5704 5701 5698 5696 5693 5690 5688 5685 5683 5681 5678 5677 5677 5676 5673 5669 5667 5668
5683 5691 5698 5703 5708 5710 5710 5710 5709 5708 5706 5705 5707 5707 5708 5709 5708 5708 5708 5707 5706 5705 5704 5702 5700 5698 5696 5694 5691 5688 5685 5683 5682 5680 5678 5676 5675 5674 5674 5674 5673 5668 5664
5675 5681 5687 5691 5695 5697 5698 5698 5698 5698 5696 5699 5701 5703 5703 5703 5703 5702 5701 5701 5701 5700 5697 5695 5693 5692 5690 5688 5686 5683 5682 5679 5678 5677 5676 5674 5673 5673 5672 5671 5672 5672 5668
5667 5673 5677 5681 5684 5684 5685 5686 5688 5689 5691 5694 5696 5698 5698 5699 5698 5697 5696 5696 5695 5693 5691 5690 5688 5685 5683 5682 5680 5678 5677 5675 5675 5674 5674 5673 5672 5671 5670 5669 5669 5669 5668
5663 5667 5670 5673 5676 5677 5679 5681 5684 5687 5690 5693 5694 5694 5695 5695 5695 5693 5692 5690 5689 5688 5686 5684 5682 5679 5677 5676 5674 5672 5672 5671 5671 5671 5670 5670 5670 5669 5669 5668 5668 5667 5667
5659 5662 5664 5667 5670 5673 5677 5680 5684 5688 5690 5692 5692 5692 5692 5691 5691 5689 5687 5685 5684 5683 5681 5679 5676 5674 5672 5670 5668 5667 5666 5666 5666 5666 5666 5667 5667 5667 5667 5667 5666 5665 5665
5653 5657 5659 5663 5668 5672 5676 5680 5684 5688 5690 5690 5689 5688 5688 5687 5686 5685 5684 5682 5680 5679 5677 5674 5672 5669 5667 5665 5663 5662 5661 5660 5659 5660 5661 5662 5662 5663 5663 5664 5664 5664 5663
5647 5652 5656 5660 5664 5669 5674 5678 5681 5684 5686 5686 5684 5683 5683 5682 5682 5680 5679 5678 5677 5675 5673 5670 5667 5665 5662 5660 5658 5657 5656 5655 5654 5654 5654 5656 5657 5658 5659 5659 5659 5659 5659
5641 5646 5651 5655 5658 5663 5668 5672 5674 5676 5678 5677 5676 5676 5676 5675 5674 5674 5673 5672 5671 5670 5667 5665 5662 5660 5659 5658 5656 5653 5651 5650 5649 5648 5649 5650 5652 5653 5654 5655 5655 5655 5654
5637 5641 5644 5647 5651 5656 5660 5663 5666 5668 5669 5669 5668 5668 5667 5667 5666 5666 5665 5664 5664 5663 5662 5660 5657 5655 5654 5653 5652 5650 5647 5645 5644 5644 5643 5645 5647 5647 5647 5648 5649 5650 5650
5634 5637 5640 5643 5647 5651 5654 5657 5659 5660 5660 5660 5660 5659 5658 5658 5657 5657 5656 5656 5656 5655 5655 5654 5652 5650 5649 5649 5648 5646 5643 5641 5640 5639 5639 5639 5640 5641 5642 5642 5642 5643 5644
5634 5637 5640 5642 5645 5647 5649 5651 5651 5651 5652 5652 5651 5650 5649 5648 5648 5647 5647 5647 5647 5647 5647 5646 5646 5644 5644 5644 5644 5642 5638 5636 5635 5635 5635 5635 5636 5638 5638 5637 5637 5638 5639
5637 5640 5642 5643 5644 5644 5645 5646 5645 5645 5645 5644 5643 5642 5641 5640 5638 5638 5638 5638 5638 5638 5638 5638 5637 5637 5637 5638 5639 5638 5634 5631 5630 5630 5630 5631 5632 5633 5634 5632 5632 5632 5634
5640 5641 5641 5641 5641 5642 5642 5641 5640 5639 5638 5638 5636 5634 5633 5632 5630 5629 5628 5628 5628 5628 5628 5628 5628 5628 5629 5631 5632 5631 5629 5627 5625 5624 5623 5624 5626 5628 5628 5628 5627 5628 5629
5640 5641 5639 5638 5639 5639 5639 5637 5635 5634 5633 5632 5629 5626 5624 5623 5622 5620 5619 5619 5619 5619 5618 5618 5618 5618 5619 5621 5623 5623 5622 5621 5619 5617 5617 5618 5619 5620 5621 5621 5622 5623 5624
5639 5639 5638 5637 5638 5637 5636 5634 5632 5631 5628 5625 5622 5619 5617 5615 5613 5612 5610 5610 5609 5609 5608 5608 5608 5608 5609 5610 5612 5613 5613 5612 5610 5610 5610 5611 5611 5612 5612 5614 5615 5615 5616
5638 5639 5638 5637 5636 5636 5634 5632 5630 5628 5624 5621 5618 5615 5612 5609 5607 5605 5604 5602 5601 5600 5599 5599 5599 5599 5600 5600 5601 5601 5601 5602 5601 5601 5601 5601 5602 5602 5603 5605 5606 5607 5608
5638 5639 5638 5637 5637 5636 5634 5632 5630 5627 5623 5620 5617 5614 5610 5607 5604 5601 5598 5596 5595 5593 5593 5592 5592 5592 5592 5592 5592 5592 5592 5592 5592 5591 5591 5591 5592 5593 5594 5596 5597 5599 5600
5639 5639 5640 5639 5639 5638 5637 5635 5632 5628 5625 5621 5618 5614 5611 5607 5603 5600 5597 5594 5592 5591 5590 5589 5588 5588 5587 5588 5588 5588 5587 5587 5586 5584 5582 5582 5583 5585 5586 5588 5590 5591 5593